www.pogodaiklimat.ru

Погода и климат >> Архив погоды >> Россия >> Чукотка >> Омолон


ПОГОДА в Омолоне

АРХИВ ПОГОДЫ в Омолоне

Время (UTC), дата Ветер
(напр.,м/с)
 
Видим.   Явления Облачность Т
(С)
Тd
(С)
f
(%)
Тe
(С)
Тes
(С)
Комфортность P
(гПа)
Po
(гПа)
Тmin
(С)
Tmax
(С)
R
(мм)
R24
(мм)
S
(см)
09 18.09 З 4
{9}
50 км {дождь} 10/6 600 м
[Sc Ac und]
+0.6 -0.7 91 -5 -5 1007.8 975.7 +5.4 7
12 18.09 З 5
{10}
16 км слабый снег {дождь} 10/5 600 м
[Sc Cs]
-0.5 -1.8 91 -7 -7 1011.4 979.0
15 18.09 СЗ 4
{12}
50 км {снег} 10/8 1000 м
[Sc Cs]
-1.4 -3.4 86 -7 -7 1014.0 981.4
18 18.09 СЗ 4
{10}
50 км {снег} 10/10 1200 м
[Sc]
-1.9 -4.5 82 -8 -8 1016.4 983.6
21 18.09 З 4
{10}
50 км 9/9 1020 м
[Sc]
-1.6 -3.9 84 -7 -7 1018.0 985.3 -1.9 0.0
00 19.09 СЗ 4
{8}
50 км 10/10 870 м
[Sc]
-0.7 -5.0 73 -6 -6 1018.7 986.1
03 19.09 СЗ 4
{9}
50 км 8/3 1000 м
[Sc Ac trans Ci fib]
-0.5 -5.7 68 -6 -5 1019.6 986.9
06 19.09 СЗ 2
{7}
50 км 8/3 1000 м
[Sc Ac trans Ci fib]
-0.7 -4.9 73 -4 -4 1020.2 987.5
09 19.09 З 1
{4}
50 км 3/0
[Ci fib]
-2.9 -4.2 91 -5 -5 1021.3 988.4 +1.0
12 19.09 штиль 0
{2}
50 км 3/0
[Ci fib]
-6.1 -6.7 96 -7 -7 1022.5 989.1
15 19.09 штиль 0
{1}
50 км 8/0
[Ac trans Ci fib]
-4.2 -4.8 96 -5 -5 1021.8 988.7
18 19.09 В 1
{2}
50 км 8/3 1000 м
[Sc Ac trans Ci fib]
-2.7 -4.1 90 -5 -5 1021.6 988.7
21 19.09 ЮВ 2
{3}
50 км 3/0
[Ci fib]
-1.7 -4.5 81 -6 -5 1021.5 988.7 -7.1
00 20.09 В 2
{5}
50 км 3/0
[Ci fib]
+1.5 -6.1 57 -1 +2 1020.7 988.3
03 20.09 В 3
{6}
50 км 3/0
[Ci fib]
+4.7 -5.2 49 +2 +4 1019.1 987.0
06 20.09 В 2
{6}
50 км 3/0
[Ci fib]
+5.2 -3.9 52 +3 +4 1018.0 986.2
09 20.09 В 4
{5}
50 км 3/0
[Ci fib]
-1.0 -3.5 83 -7 -7 1018.8 986.1 +5.6
12 20.09 В 1
{5}
50 км 4/0
[Ac trans Ci fib]
-2.3 -4.4 85 -4 -4 1018.8 986.0
15 20.09 В 2
{4}
50 км 3/0
[Ci fib]
-3.2 -5.0 87 -7 -7 1018.3 985.4
18 20.09 В 2
{5}
50 км 8/0
[Ci fib]
-3.3 -5.3 86 -7 -7 1018.0 985.1
21 20.09 В 2
{6}
50 км 6/0
[Ac trans Ci sp]
-0.6 -4.3 76 -4 -4 1017.9 985.3 -3.8
00 21.09 ЮВ 4
{9}
50 км 6/0
[Ac trans]
+7.4 -0.8 56 +4 +6 1016.2 984.6
03 21.09 ЮВ 5
{9}
50 км 5/0
[Ac trans]
+9.5 +1.7 58 +7 +8 1015.1 983.7
06 21.09 ЮВ 5
{10}
50 км 8/3
[Sc Ac trans Ci fib]
+8.5 +2.5 66 +5 +5 1015.0 983.5
09 21.09 В 2
{10}
50 км 9/3 1000 м
[Sc Ac trans Ci fib]
+4.7 +1.7 81 +2 +2 1016.3 984.3 +9.7
12 21.09 ЮВ 1
{4}
50 км 4/0
[Ac trans]
+2.4 +0.9 90 +1 +1 1016.7 984.5
15 21.09 В 2
{4}
50 км 5/0
[Ac trans]
+2.5 +1.1 90 -1 -1 1016.4 984.2
18 21.09 В 1
{4}
50 км 9/8 1350 м
[Sc Ac trans]
+5.2 +2.8 84 +4 +4 1015.3 983.5
21 21.09 В 2
{4}
50 км 9/8 1000 м
[Sc Ac und]
+6.5 +3.6 82 +4 +4 1015.5 983.8 +1.8
00 22.09 ЮВ 5
{9}
50 км 8/3 600 м
[Sc Ac trans Ci fib]
+10.7 +4.1 64 +8 +9 1014.7 983.5
03 22.09 ЮВ 4
{8}
50 км 9/3 1000 м
[Sc Ac trans Ci fib]
+11.2 +4.0 61 +9 +10 1013.8 982.7
06 22.09 ЮВ 4
{9}
50 км 8/3 1000 м
[Sc Ac trans Ci fib]
+10.0 +3.5 64 +8 +8 1014.1 982.9
09 22.09 В 2
{8}
50 км 8/0
[Ac trans Ci fib]
+6.7 +3.1 78 +5 +5 1014.7 983.2 +12.6
12 22.09 В 2
{4}
50 км 8/0
[Ac trans Ci fib]
+4.4 +2.7 89 +2 +2 1015.6 983.6
15 22.09 В 1
{3}
50 км 8/0
[Ac trans Ci fib]
+2.4 +1.5 94 +1 +1 1016.0 983.8
18 22.09 штиль 0
{3}
50 км 9/0
[Ac trans Ci fib]
+1.1 +0.7 97 -0 -0 1016.2 983.9
21 22.09 штиль 0
{1}
50 км 10/10 870 м
[Sc]
+4.0 +2.8 92 +3 +3 1016.0 984.0 +0.4
00 23.09 ЮВ 3
{6}
50 км 10/8 930 м
[Sc Ac trans]
+9.4 +3.5 67 +7 +7 1015.5 984.1
03 23.09 В 3
{6}
50 км 10/8 1050 м
[Sc Ac trans Ci fib]
+10.3 +3.6 63 +8 +9 1014.5 983.3
06 23.09 В 2
{5}
50 км 10/8 1140 м
[Sc Ac trans]
+9.8 +3.5 65 +9 +9 1014.2 983.0
09 23.09 В 3
{5}
50 км 10/8 1080 м
[Sc Ac trans Ci fib]
+7.9 +3.3 73 +5 +5 1014.5 983.1 +10.6
12 23.09 В 2
{5}
50 км 10/8 1110 м
[Sc Ac trans]
+7.1 +3.9 80 +5 +5 1014.9 983.4
15 23.09 ЮВ 1
{4}
50 км 6/0
[Ac trans Ci fib]
+4.4 +3.0 91 +3 +3 1015.3 983.4
18 23.09 штиль 0
{2}
50 км 3/0
[Ci fib]
-1.2 -1.5 98 -3 -3 1016.4 983.7
21 23.09 штиль 0
{2}
50 км 10/8 1000 м
[Sc Ac trans]
+1.9 +1.3 96 +1 +1 1016.5 984.3 -1.7
00 24.09 штиль 0
{2}
50 км 10/8 600 м
[Sc Ac trans]
+8.1 +4.1 76 +7 +8 1015.5 984.0
03 24.09 СВ 2
{4}
50 км 9/8 600 м
[Sc Ac trans]
+11.9 +4.8 62 +11 +11 1014.4 983.4
06 24.09 СВ 1
{4}
50 км 8/6 600 м
[Sc Ac trans]
+11.6 +4.6 62 +12 +12 1014.2 983.2
09 24.09 СВ 1
{3}
50 км 8/8 1500 м
[Sc]
+8.4 +4.2 75 +8 +8 1015.3 983.8 +12.3
12 24.09 штиль 0
{3}
50 км 9/9 1500 м
[Sc]
+7.3 +3.7 78 +7 +7 1016.0 984.4
15 24.09 штиль 0
{2}
50 км 9/9 1500 м
[Sc]
+5.1 +2.9 86 +4 +4 1016.2 984.4
18 24.09 З 1
{2}
50 км 9/9
[Sc]
+4.2 +2.5 89 +3 +3 1016.7 984.7
21 24.09 СЗ 1
{3}
50 км 9/5 1000 м
[Sc Ac trans]
+5.5 +3.8 89 +4 +4 1017.1 985.3 +3.8
00 25.09 З 1
{2}
50 км 8/4 1000 м
[Sc Ac trans Ci fib]
+9.0 +4.6 74 +9 +10 1016.4 985.0
03 25.09 ЮВ 1
{3}
50 км 9/4 600 м
[Cb cap Ac trans Ci fib]
+11.9 +3.9 58 +12 +13 1015.2 984.1
06 25.09 З 1
{3}
50 км 9/4 1000 м
[Sc Ac trans]
+11.4 +3.7 59 +11 +12 1015.0 983.8

 

Местоположение метеостанции Омолон (Чукотка, Россия): широта 65.23 долгота 160.50 высота над уровнем моря 260 м.

В архиве по умолчанию представлена погода в Омолоне за последнюю неделю. Архивные данные за месяц целиком и за предыдущие месяцы, начиная с января 2011 года, Вы можете получить, выбрав интересующий диапазон дат из раскрывающегося списка и нажав кнопку "Ввод!".

Внимание! Время в таблицах - всемирное. Для получения местного времени необходимо прибавить поправку, которая в Омолоне равна 12 ч.

Смотрите также архив погоды в соседних городах и на ближайших метеорологических станциях:

Погода в Кегали (Магаданская область, Россия) (112 км)
Погода в Верхне-Пенжино (Камчатский край, Россия) (209 км)
Погода в Баимке (Чукотка, Россия) (222 км)
Погода в Лабазной (Магаданская область, Россия) (235 км)
Погода в Коркодоне (Магаданская область, Россия) (315 км)
Погода в Константиновской (Чукотка, Россия) (326 км)
Погода в Балыгычане (Магаданская область, Россия) (339 км)
Погода в Анюйске (Чукотка, Россия) (350 км)
Погода на Островном (Чукотка, Россия) (358 км)
Погода в Эвенске (Магаданская область, Россия) (374 км)

Пояснения к столбцам:

Ветер - указаны скорость ветра в м/с - средняя за 10 мин, порывы в срок и между сроками (в фигурных скобках) и направление, откуда дует ветер: С - северный, СВ - северо-восточный, В - восточный, ЮВ - юго-восточный, Ю - южный, ЮЗ - юго-западный, З - западный, СЗ - северо-западный.
Видимость - горизонтальная дальность видимости в метрах или километрах. При видимости от 1 до 10 км при отсутствии осадков обычно наблюдается дымка, при ухудшении видимости до 1 км и менее - туман. В сухую погоду видимость может ухудшаться дымом, пылью или мглою.
Явления - указаны атмосферные явления, наблюдавшиеся в срок или в последний час перед сроком; фигурными скобками обозначены явления, наблюдавшиеся между сроками (за 1-3 часа до срока); квадратными скобками обозначены град или гололедные отложения с указанием их диаметра в мм.
Облачность - указаны через наклонную черту общая и нижняя облачность в баллах и высота нижней границы облаков в метрах; квадратными скобками обозначены формы облаков: Ci - перистые, Cs - перисто-слоистые, Cc - перисто-кучевые, Ac - высококучевые, As - высокослоистые, Sc - слоисто-кучевые, Ns - слоисто-дождевые, Cu - кучевые, Cb - кучево-дождевые. Подробнее классификацию облаков см. в Атласе облаков (PDF).
T - Температура воздуха - температура, измеренная на высоте 2 м над землей.
Td - Температура точки росы - температура, при понижении до которой содержащийся в воздухе водяной пар достигнет насыщения.
f - Относительная влажность воздуха - влажноcть воздуха, измеренная на высоте 2 м над землей.
Te - Эффективная температура - температура, которую ощущает одетый по сезону человек в тени. Характеристика душности погоды. При расчете учитывается влияние влажности воздуха и скорости ветра на теплоощущения человека.
Tes - Эффективная температура на солнце - температура, которую ощущает человек, с поправкой на солнечный нагрев. Характеристика знойности погоды. Зависит от высоты солнца над горизонтом, облачности и скорости ветра. Ночью, в пасмурную погоду, а также при ветре 12 м/с и более поправка равна нулю.
P - Атмосферное давление - приведенное к уровню моря атмосферное давление.
Po - Атмосферное давление - измеренное на уровне метеостанции атмосферное давление.
Tmin - Минимальная температура - минимум температуры воздуха на высоте 2 м над землей.
Tmax - Максимальная температура - максимум температуры воздуха на высоте 2 м над землей.
R - Количество осадков - Количество выпавших осадков за период времени, мм. При наведении курсора мыши на число - период времени, за который выпало указанное количество осадков.
R24 - Количество осадков - Количество выпавших осадков за 24 часа, мм.
S - Снежный покров - Высота снежного покрова, см. При наведении курсора мыши на число - состояние снежного покрова и степень покрытия местности в баллах.